K7TUS-6 Weather Reports


Display with metric or nautical units.
time (UTC)temp
F
wind
direction
speed
MPH
gust
MPH
rain 1hr
in
rain 24hr
in
rain mn
in
humidity
%
barometer
mb
20260502214006 65 127 3.0 4.0 0.00 0.00 0.00 3 985.1
20260502213518 65 135 5.0 6.0 0.00 0.00 0.00 2 986.1
20260502213005 66 147 2.0 3.0 0.00 0.00 0.00 1 985.5
20260502212504 66 152 4.0 5.0 0.00 0.00 0.00 1 985.8
20260502212004 66 126 3.0 5.0 0.00 0.00 0.00 1 985.9
20260502211503 66 138 4.0 7.0 0.00 0.00 0.00 1 986.3
20260502211009 67 165 5.0 7.0 0.00 0.00 0.00 1 986.8
20260502210508 69 157 3.0 6.0 0.00 0.00 0.00 1 986.6
20260502210008 68 143 4.0 5.0 0.00 0.00 0.00 1 986.4
20260502205507 66 143 6.0 8.0 0.00 0.00 0.00 1 986.8
20260502205006 65 127 4.0 7.0 0.00 0.00 0.00 2 986.4
20260502204506 64 122 2.0 2.0 0.00 0.00 0.00 1 986.8
20260502203505 64 139 3.0 4.0 0.00 0.00 0.00 100 987.0
20260502203004 64 121 2.0 2.0 0.00 0.00 0.00 1 986.4
20260502202504 64 128 2.0 2.0 0.00 0.00 0.00 1 986.5
20260502201503 62 146 4.0 4.0 0.00 0.00 0.00 5 986.6
20260502201002 62 169 3.0 4.0 0.00 0.00 0.00 6 986.2
20260502200508 62 148 5.0 6.0 0.00 0.00 0.00 4 986.8
20260502200007 63 141 5.0 7.0 0.00 0.00 0.00 4 986.5
20260502195507 64 149 5.0 7.0 0.00 0.00 0.00 5 986.2
20260502195007 63 143 5.0 7.0 0.00 0.00 0.00 5 986.3
20260502194506 62 129 3.0 5.0 0.00 0.00 0.00 4 986.4
20260502194006 62 123 2.0 3.0 0.00 0.00 0.00 3 985.9
20260502193505 63 92 3.0 4.0 0.00 0.00 0.00 4 986.6
20260502193004 63 94 3.0 6.0 0.00 0.00 0.00 6 986.4
20260502192503 62 125 4.0 6.0 0.00 0.00 0.00 6 986.4
20260502192003 62 90 5.0 8.0 0.00 0.00 0.00 7 986.7
20260502191508 63 92 2.0 3.0 0.00 0.00 0.00 5 986.6
20260502191008 64 100 3.0 6.0 0.00 0.00 0.00 7 985.9
20260502190007 64 97 3.0 6.0 0.00 0.00 0.00 6 986.1
20260502185507 64 102 2.0 2.0 0.00 0.00 0.00 6 985.4
20260502185006 64 108 1.0 2.0 0.00 0.00 0.00 6 987.5
20260502184505 64 115 2.0 4.0 0.00 0.00 0.00 6 988.2
20260502184005 63 59 2.0 4.0 0.00 0.00 0.00 6 986.4
20260502183004 61 33 2.0 4.0 0.00 0.00 0.00 10 987.8
20260502182504 62 53 2.0 4.0 0.00 0.00 0.00 8 987.5
20260502182009 61 72 1.0 3.0 0.00 0.00 0.00 8 987.3
20260502181508 60 94 1.0 1.0 0.00 0.00 0.00 7 987.1
20260502181008 60 23 1.0 2.0 0.00 0.00 0.00 6 987.5
20260502170507 62 91 1.0 3.0 0.00 0.00 0.00 4 987.1
20260502164004 62 123 3.0 4.0 0.00 0.00 0.00 5 986.1
20260502163504 63 66 2.0 3.0 0.00 0.00 0.00 3 986.9
20260502163003 63 127 3.0 6.0 0.00 0.00 0.00 4 986.7
20260502162502 62 115 3.0 6.0 0.00 0.00 0.00 4 985.7
20260502161508 62 79 2.0 5.0 0.00 0.00 0.00 5 985.9
20260502161007 61 145 5.0 6.0 0.00 0.00 0.00 4 986.2
20260502160507 61 77 2.0 5.0 0.00 0.00 0.00 4 985.9
20260502151507 59 67 2.0 3.0 0.00 0.00 0.00 6 985.7
20260502151007 59 84 3.0 3.0 0.00 0.00 0.00 5 985.3
20260502130507 49 338 3.0 3.0 0.00 0.00 0.00 100 983.2
20260502123505 49 280 2.0 2.0 0.00 0.00 0.00 1 983.1
20260502123022 49 357 1.0 2.0 0.00 0.00 0.00 1 983.3
20260502122504 49 169 1.0 1.0 0.00 0.00 0.00 1 983.6
20260502121503 49 255 2.0 2.0 0.00 0.00 0.00 1 982.7
20260502121003 49 303 2.0 2.0 0.00 0.00 0.00 1 983.3
20260502115507 49 295 3.0 4.0 0.00 0.00 0.00 1 983.0
20260502115007 48 267 2.0 2.0 0.00 0.00 0.00 100 982.7
20260502114506 48 269 3.0 4.0 0.00 0.00 0.00 1 983.0
20260502113505 48 255 2.0 3.0 0.00 0.00 0.00 1 982.5
20260502113005 47 285 2.0 3.0 0.00 0.00 0.00 2 983.0
20260502112503 47 319 4.0 6.0 0.00 0.00 0.00 1 983.0
20260502112003 47 274 5.0 7.0 0.00 0.00 0.00 100 982.2
20260502111502 49 247 2.0 3.0 0.00 0.00 0.00 1 982.8
20260502110508 49 260 3.0 5.0 0.00 0.00 0.00 1 983.4
20260502110007 49 249 5.0 5.0 0.00 0.00 0.00 1 983.0
20260502105506 49 250 3.0 4.0 0.00 0.00 0.00 1 983.1
20260502105006 49 236 3.0 5.0 0.00 0.00 0.00 1 982.7
20260502104505 49 236 2.0 4.0 0.00 0.00 0.00 1 983.0
20260502104004 50 221 3.0 4.0 0.00 0.00 0.00 1 982.4
20260502103504 49 222 2.0 4.0 0.00 0.00 0.00 1 983.2
20260502103003 50 245 2.0 4.0 0.00 0.00 0.00 1 982.9
20260502102503 50 192 2.0 3.0 0.00 0.00 0.00 1 983.2
20260502102008 49 205 1.0 1.0 0.00 0.00 0.00 100 983.8
20260502101507 49 233 3.0 5.0 0.00 0.00 0.00 1 983.5
20260502101007 49 223 1.0 2.0 0.00 0.00 0.00 1 983.4
20260502100506 49 220 1.0 1.0 0.00 0.00 0.00 1 983.3
20260502091508 46 309 7.0 9.0 0.00 0.00 0.00 6 983.9
20260502091007 46 313 7.0 7.0 0.00 0.00 0.00 6 983.2
20260502090507 47 304 8.0 9.0 0.00 0.00 0.00 6 983.9
20260502071508 46 305 11.0 13.0 0.00 0.00 0.00 9 983.0
20260502071007 46 318 13.0 15.0 0.00 0.00 0.00 8 984.2
20260502070507 46 324 12.0 15.0 0.00 0.00 0.00 8 983.8
20260502065506 46 310 14.0 18.0 0.00 0.00 0.00 7 983.3
20260502065006 46 308 12.0 15.0 0.00 0.00 0.00 7 983.8
20260502064505 46 299 9.0 13.0 0.00 0.00 0.00 7 982.9
20260502063504 46 306 12.0 17.0 0.00 0.00 0.00 8 983.9
20260502063004 47 294 8.0 10.0 0.00 0.00 0.00 7 983.7
20260502062509 46 321 9.0 11.0 0.00 0.00 0.00 9 984.4
20260502062009 46 303 10.0 13.0 0.00 0.00 0.00 11 983.7
20260502061008 46 297 9.0 11.0 0.00 0.00 0.00 12 983.5
20260502060007 45 306 11.0 13.0 0.00 0.00 0.00 15 983.7
20260502055507 46 324 12.0 14.0 0.00 0.00 0.00 16 983.6
20260502055006 46 319 13.0 16.0 0.00 0.00 0.00 16 983.8
20260502054506 46 323 12.0 14.0 0.00 0.00 0.00 16 983.2
20260502054005 45 307 11.0 13.0 0.00 0.00 0.00 17 983.1
20260502053505 46 318 13.0 15.0 0.00 0.00 0.00 17 983.2
20260502053004 46 315 11.0 12.0 0.00 0.00 0.00 15 983.6
20260502052504 46 309 8.0 9.0 0.00 0.00 0.00 16 983.8
20260502052003 46 321 11.0 14.0 0.00 0.00 0.00 16 983.4
20260502051509 46 330 11.0 13.0 0.00 0.00 0.00 16 983.5
20260502051008 47 328 8.0 11.0 0.00 0.00 0.00 15 983.4
20260502050507 47 320 6.0 9.0 0.00 0.00 0.00 13 982.5
20260502045507 48 317 3.0 4.0 0.00 0.00 0.00 11 983.0
20260502045006 47 288 4.0 6.0 0.00 0.00 0.00 13 983.1
20260502044005 48 321 6.0 8.0 0.00 0.00 0.00 13 983.2
20260502043505 48 322 5.0 6.0 0.00 0.00 0.00 13 984.0
20260502043004 47 324 5.0 7.0 0.00 0.00 0.00 14 983.6
20260502042004 47 327 7.0 12.0 0.00 0.00 0.00 15 983.3
20260502041509 47 322 8.0 11.0 0.00 0.00 0.00 14 983.4
20260502041009 46 320 11.0 14.0 0.00 0.00 0.00 14 983.3
20260502040508 47 325 8.0 11.0 0.00 0.00 0.00 14 982.8
20260502035507 47 326 8.0 11.0 0.00 0.00 0.00 13 983.6
20260502035007 47 304 7.0 8.0 0.00 0.00 0.00 13 982.9
20260502034006 48 310 5.0 7.0 0.00 0.00 0.00 11 983.1
20260502033510 47 296 6.0 6.0 0.00 0.00 0.00 12 982.7
20260502033005 47 294 6.0 6.0 0.00 0.00 0.00 12 982.6
20260502032517 47 297 8.0 8.0 0.00 0.00 0.00 12 982.5
20260502032003 47 300 8.0 8.0 0.00 0.00 0.00 10 983.0
20260502031503 48 266 4.0 4.0 0.00 0.00 0.00 10 982.0
20260502030008 50 235 6.0 7.0 0.00 0.00 0.00 5 981.9
20260502025508 49 235 6.0 8.0 0.00 0.00 0.00 6 982.3
20260502025007 49 258 7.0 8.0 0.00 0.00 0.00 6 981.9
20260502024006 50 224 5.0 7.0 0.00 0.00 0.00 5 981.6
20260502023506 50 225 12.0 16.0 0.00 0.00 0.00 5 981.1
20260502023005 51 236 6.0 9.0 0.00 0.00 0.00 4 980.9
20260502022504 50 206 11.0 14.0 0.00 0.00 0.00 4 982.4
20260502022009 50 266 6.0 8.0 0.00 0.00 0.00 4 982.4
20260502021508 51 222 7.0 8.0 0.00 0.00 0.00 4 981.8
20260502021008 51 187 7.0 11.0 0.00 0.00 0.00 3 982.3
20260502020506 51 211 4.0 4.0 0.00 0.00 0.00 4 981.9
20260502020006 51 216 4.0 4.0 0.00 0.00 0.00 4 982.5
20260502015505 52 295 5.0 5.0 0.00 0.00 0.00 3 981.8
20260502015005 53 246 7.0 9.0 0.00 0.00 0.00 3 981.7
20260502014504 53 212 4.0 6.0 0.00 0.00 0.00 3 982.0
20260502014003 53 252 2.0 4.0 0.00 0.00 0.00 5 981.8
20260502013503 54 203 8.0 13.0 0.00 0.00 0.00 1 981.8
20260502013008 54 224 8.0 10.0 0.00 0.00 0.00 1 981.6
20260502012508 55 197 4.0 7.0 0.00 0.00 0.00 1 982.4
20260502012007 54 236 3.0 5.0 0.00 0.00 0.00 3 982.1
20260502011506 56 162 3.0 5.0 0.00 0.00 0.00 1 981.3
20260502011006 58 173 3.0 5.0 0.00 0.00 0.00 1 982.1
20260502010505 57 184 9.0 13.0 0.00 0.00 0.00 1 981.6
20260502010005 58 181 5.0 7.0 0.00 0.00 0.00 1 981.7
20260502005504 59 209 4.0 7.0 0.00 0.00 0.00 100 981.9
20260502005003 60 131 2.0 5.0 0.00 0.00 0.00 1 981.9
20260502004509 58 254 4.0 7.0 0.00 0.00 0.00 1 981.6
20260502004008 59 186 4.0 8.0 0.00 0.00 0.00 1 982.0
20260502003508 59 192 6.0 7.0 0.00 0.00 0.00 1 981.5
20260502003007 58 225 7.0 10.0 0.00 0.00 0.00 100 982.0
20260502002507 59 206 2.0 3.0 0.00 0.00 0.00 100 981.7
20260502002006 60 180 12.0 18.0 0.00 0.00 0.00 100 981.9
20260502001506 61 232 3.0 7.0 0.00 0.00 0.00 100 981.3
20260502001005 58 223 6.0 10.0 0.00 0.00 0.00 1 981.9
20260502000505 60 222 4.0 6.0 0.00 0.00 0.00 1 980.6
20260502000004 60 202 5.0 10.0 0.00 0.00 0.00 1 982.2
20260501235003 62 189 4.0 6.0 0.00 0.00 0.00 1 982.9
20260501234509 62 215 5.0 8.0 0.00 0.00 0.00 1 982.0
20260501234008 61 225 2.0 5.0 0.00 0.00 0.00 1 981.4
20260501233508 62 222 4.0 6.0 0.00 0.00 0.00 1 981.6
20260501232507 62 183 5.0 11.0 0.00 0.00 0.00 100 981.8
20260501232006 60 171 4.0 5.0 0.00 0.00 0.00 1 982.2
20260501231506 60 219 11.0 15.0 0.00 0.00 0.00 1 982.4
20260501231005 61 153 2.0 3.0 0.00 0.00 0.00 1 982.2
20260501230505 60 322 3.0 4.0 0.00 0.00 0.00 100 981.6
20260501230004 61 214 4.0 8.0 0.00 0.00 0.00 1 982.0
20260501225503 62 180 6.0 8.0 0.00 0.00 0.00 1 981.5
20260501225003 60 270 3.0 8.0 0.00 0.00 0.00 1 981.6
20260501224508 59 180 4.0 11.0 0.00 0.00 0.00 1 981.3
20260501224007 60 255 3.0 5.0 0.00 0.00 0.00 1 981.0
20260501223507 60 240 5.0 7.0 0.00 0.00 0.00 1 980.3
20260501223006 62 179 4.0 7.0 0.00 0.00 0.00 1 980.4
20260501222506 63 354 2.0 4.0 0.00 0.00 0.00 1 981.2
20260501222005 63 222 4.0 9.0 0.00 0.00 0.00 100 981.4
20260501221504 64 235 5.0 11.0 0.00 0.00 0.00 100 982.1
20260501221004 64 215 5.0 12.0 0.00 0.00 0.00 2 982.2
20260501220503 63 204 6.0 8.0 0.00 0.00 0.00 1 982.3
20260501220009 65 210 5.0 7.0 0.00 0.00 0.00 100 982.8
20260501215508 66 307 1.0 4.0 0.00 0.00 0.00 1 982.5
20260501215007 65 177 2.0 4.0 0.00 0.00 0.00 100 982.5
20260501214507 65 172 7.0 12.0 0.00 0.00 0.00 1 982.1